• Join FlightAware (Why Join?)
  • Login
  • US Flag 
Gobble Gobble! 
09:57AM EST


 

Airport Tracker/Info


-or-


 

Live Flight TrackerFlight Track Log ✈ UCA3596 ✈ 18-Oct-2013 ✈ KBGM - KIAD

Flight Track Log - Related Links

Times and Time Zones

All times are in EDT time to prevent confusion due to time zone crossing. See the UCA3596 flight status page for this flight to view local times or setup timezone preferences in your user account.

Time Position Orientation Groundspeed Altitude Reporting Facility
EDT Latitude Longitude Course Direction KTS MPH feet Rate Location/Type
02:36PM 42.2114 -76.0175 212° Southwest 258 297 3,000  Level New York Center
02:37PM 42.1678 -76.0589 215° Southwest 176 203 4,100 1,080 Climbing New York Center
02:38PM 42.1289 -76.0919 212° Southwest 191 220 5,200 1,260 Climbing New York Center
02:40PM 42.0300 -76.1175 191° South 188 216 8,000 900 Climbing New York Center
02:41PM 41.8617 -76.1445 212° Southwest  Level Estimated
02:41PM 41.9786 -76.1497 205° Southwest 202 232 8,000  Level New York Center
02:42PM 41.9228 -76.1842 205° Southwest 210 242 9,900 1,500 Climbing New York Center
02:43PM 41.8756 -76.2139 205° Southwest 198 228 11,000 1,020 Climbing New York Center
02:44PM 41.8286 -76.2433 205° Southwest 198 228 12,000 1,020 Climbing New York Center
02:45PM 41.7856 -76.2706 205° Southwest 193 222 13,100 960 Climbing New York Center
02:46PM 41.7383 -76.3000 205° Southwest 193 222 14,000 960 Climbing New York Center
02:47PM 41.6869 -76.3317 205° Southwest 193 222 15,100 960 Climbing New York Center
02:48PM 41.6397 -76.3611 205° Southwest 187 215 16,000 420 Climbing New York Center
02:49PM 41.5903 -76.3931 206° Southwest 192 221 16,000  Level New York Center
02:50PM 41.5389 -76.4247 205° Southwest 215 247 16,000  Level New York Center
02:51PM 41.4767 -76.4611 204° Southwest 221 254 16,000  Level New York Center
02:52PM 41.4208 -76.4950 204° Southwest 221 254 16,000  Level New York Center
02:53PM 41.3650 -76.5317 206° Southwest 221 254 16,000  Level New York Center
02:54PM 41.3156 -76.5608 204° Southwest 221 254 16,000  Level New York Center
02:55PM 41.2597 -76.5944 204° Southwest 221 254 16,000  Level New York Center
02:56PM 41.1997 -76.6308 205° Southwest 221 254 16,000  Level New York Center
02:57PM 41.1439 -76.6644 204° Southwest 221 254 16,000  Level New York Center
02:58PM 41.0919 -76.7014 208° Southwest 226 260 16,000  Level New York Center
02:59PM 41.0361 -76.7350 204° Southwest 226 260 16,000  Level New York Center
03:00PM 40.9825 -76.7661 204° Southwest 226 260 16,000  Level New York Center
03:01PM 40.9264 -76.8022 206° Southwest 226 260 16,000  Level New York Center
03:02PM 40.8664 -76.8381 204° Southwest 221 254 16,000  Level New York Center
03:03PM 40.8147 -76.8692 205° Southwest 221 254 16,000  Level New York Center
03:04PM 40.7506 -76.8992 200° South 221 254 16,000  Level New York Center
03:05PM 40.6914 -76.9156 192° South 233 268 16,000  Level New York Center
03:06PM 40.6256 -76.9372 194° South 233 268 16,000  Level New York Center
03:07PM 40.5686 -76.9539 193° South 233 268 16,000  Level New York Center
03:08PM 40.5008 -76.9753 193° South 233 268 16,000  Level New York Center
03:09PM 40.4433 -76.9944 194° South 233 268 16,000 -300 Level New York Center
03:10PM 40.3736 -77.0156 193° South 238 274 15,400 -840 Descending New York Center
03:12PM 40.2500 -77.0500 192° South 262 302 13,800 -1,020 Descending Potomac TRACON
03:13PM 40.2000 -77.0667 194° South 260 299 12,900 -1,020 Descending Potomac TRACON
03:14PM 40.1167 -77.1000 197° South 264 304 11,800 -1,020 Descending Potomac TRACON
03:15PM 40.0500 -77.1167 191° South 261 300 10,900 -1,020 Descending Potomac TRACON
03:16PM 39.9667 -77.1333 189° South 260 299 9,800 -900 Descending Potomac TRACON
03:17PM 39.9000 -77.1500 191° South 253 291 9,100 -540 Descending Potomac TRACON
03:18PM 39.8500 -77.1833 207° Southwest 247 284 8,800 -360 Descending Potomac TRACON
03:19PM 39.7833 -77.2000 191° South 251 289 8,500 -300 Descending Potomac TRACON
03:20PM 39.7167 -77.2167 191° South 248 285 8,200 -360 Descending Potomac TRACON
03:21PM 39.6333 -77.2500 197° South 248 285 7,800 -420 Descending Potomac TRACON
03:22PM 39.5833 -77.2833 207° Southwest 250 288 7,400 -420 Descending Potomac TRACON
03:23PM 39.5167 -77.3000 191° South 249 287 7,100 -420 Descending Potomac TRACON
03:24PM 39.4500 -77.3167 191° South 255 293 6,600 -600 Descending Potomac TRACON
03:25PM 39.3667 -77.3333 189° South 261 300 5,900 -660 Descending Potomac TRACON
03:26PM 39.3000 -77.3500 191° South 248 285 5,300 -420 Descending Potomac TRACON
03:27PM 39.2333 -77.3667 191° South 246 283 5,100 -360 Descending Potomac TRACON
03:28PM 39.1667 -77.3500 169° South 246 283 4,600 -540 Descending Potomac TRACON
03:29PM 39.1000 -77.3500 180° South 245 282 4,100 -300 Descending Potomac TRACON
03:30PM 39.0333 -77.3500 180° South 220 253 4,100 -300 Level Potomac TRACON
03:31PM 38.9667 -77.3500 180° South 247 284 3,500 -540 Descending Potomac TRACON
03:32PM 38.9167 -77.3500 180° South 244 281 3,100 -240 Descending Potomac TRACON
03:33PM 38.8333 -77.3667 189° South 224 258 3,100  Level Potomac TRACON
03:34PM 38.8000 -77.3667 180° South 203 234 3,100  Level Potomac TRACON
03:35PM 38.7500 -77.4000 207° Southwest 208 239 3,100 -120 Level Potomac TRACON
03:36PM 38.8000 -77.4333 333° Northwest 167 192 2,900 -480 Descending Potomac TRACON
03:37PM 38.8333 -77.4333 360° North 140 161 2,200 -720 Descending Potomac TRACON
03:38PM 38.8667 -77.4333 360° North 127 146 1,500 -720 Descending Potomac TRACON
03:39PM 38.9000 -77.4333 360° North 124 143 800 -720 Descending Potomac TRACON